Temperature
10 11 11 11 11 11 12 12 12 12 12 12 12 12 12 12 12 12 12 12 12 12 12 12 12 12 12 12 12 12 12 12 12 12 11 11 11 11 11 10 10 10 10
10 10 10 10 11 11 11 11 11 11 11 11 11 12 12 12 12 12 12 12 12 12 12 12 12 12 12 12 12 12 12 12 12 12 11 11 11 11 10 10 10 10 10
9 9 9 10 10 10 10 10 10 10 11 11 11 11 11 11 11 11 11 11 11 12 12 12 12 12 12 12 12 12 12 12 12 11 11 11 11 10 10 10 10 10 9
8 8 9 9 9 9 9 9 9 10 10 10 10 10 10 10 10 11 11 11 11 11 11 11 11 11 12 12 12 12 12 12 11 11 11 11 11 10 10 10 10 9 9
8 8 8 8 8 8 9 9 9 9 9 9 9 10 10 10 10 10 10 10 10 11 11 11 11 11 11 11 11 11 11 11 11 11 11 11 11 10 10 10 10 9 9
7 7 7 8 8 8 8 8 8 8 8 8 8 9 9 9 10 10 10 10 10 10 10 11 11 11 11 11 11 11 11 11 11 11 11 11 11 10 10 10 9 9 9
7 7 7 7 7 7 7 7 7 7 8 7 7 8 8 9 9 9 9 9 9 10 10 10 10 10 10 10 11 11 11 11 11 11 11 11 10 10 10 10 9 9 9
6 6 6 7 7 7 7 7 7 7 7 7 6 6 7 8 8 8 9 9 9 9 9 9 10 10 10 10 10 10 10 10 10 10 10 10 10 10 10 9 9 9 9
6 6 6 6 6 6 6 6 6 6 6 6 6 6 6 6 7 8 8 8 8 8 9 9 9 9 9 10 10 10 10 10 10 10 10 10 10 10 9 9 9 9 9
6 6 6 6 6 6 6 6 6 6 6 6 6 6 6 6 6 6 7 7 8 8 8 8 9 9 9 9 9 10 10 10 10 10 10 10 10 9 9 9 9 9 8
5 5 5 5 5 5 5 5 5 5 5 5 5 5 5 6 6 5 6 6 7 8 8 8 8 8 9 9 9 9 9 9 10 10 10 10 10 9 9 9 9 9 8
5 5 5 5 5 5 5 5 5 5 5 5 5 5 5 5 5 5 5 6 6 7 7 8 8 8 8 8 9 9 9 9 9 9 9 9 9 9 9 9 9 8 8
5 5 5 5 5 5 5 4 4 4 5 5 5 5 5 5 5 5 5 5 5 6 6 7 7 8 8 8 8 8 8 9 9 9 9 9 9 9 9 9 9 8 8
4 4 4 4 4 4 4 4 4 4 4 4 4 4 5 5 5 5 5 5 5 5 6 6 7 7 7 8 8 8 8 8 8 9 9 9 9 8 8 8 8 8 8
4 4 4 4 4 4 4 4 4 4 4 4 4 4 4 5 5 5 5 5 5 4 5 6 6 7 7 7 7 7 8 8 8 8 8 8 8 8 8 8 8 8 7
3 3 3 3 3 3 3 3 4 4 4 4 4 4 4 4 4 4 4 5 5 5 4 5 6 7 7 7 7 7 7 7 8 8 8 8 8 8 8 8 7 7 7
3 3 3 3 3 3 3 3 3 3 3 3 3 3 4 4 4 4 4 4 5 5 5 5 6 6 6 7 7 7 7 7 7 7 8 8 8 8 7 7 7 7 7
3 3 3 3 3 3 3 3 3 3 3 3 3 3 3 4 4 4 4 4 4 4 5 5 5 5 6 6 6 6 6 7 7 7 7 7 7 7 7 7 7 6 6
2 2 3 3 3 3 3 3 3 3 3 3 3 3 3 3 3 3 4 4 4 4 4 4 5 5 5 6 6 6 6 6 6 7 7 7 7 7 6 6 6 6 6
2 2 2 2 2 2 3 3 2 2 2 2 3 3 3 3 3 3 3 4 4 4 4 4 4 5 5 5 5 5 5 6 6 6 6 6 6 6 6 6 6 6 5
2 2 2 2 2 2 2 2 2 2 2 2 2 3 3 3 3 3 3 3 3 4 4 4 4 4 4 5 5 5 5 5 5 5 6 6 5 5 5 5 5 5 5
2 2 2 2 2 2 2 2 1 1 2 2 2 2 2 3 3 3 3 3 3 4 4 4 4 4 5 5 5 5 5 4 4 5 5 5 5 5 5 5 5 4 4
1 1 1 1 1 2 2 1 1 1 1 2 2 2 2 2 3 3 3 3 4 4 4 4 4 4 4 5 5 4 5 4 4 4 4 4 4 4 4 4 4 4 4
1 1 1 1 1 1 1 1 1 1 1 1 2 2 2 2 2 3 3 3 3 4 4 4 4 4 5 5 5 4 4 4 4 4 4 3 3 3 3 3 3 3 3
1 1 1 1 1 1 1 1 1 1 1 1 1 2 2 2 2 3 3 3 3 3 3 4 4 4 4 4 4 4 4 4 3 3 3 3 3 3 3 3 3 3 2
0 1 1 0 0 0 1 1 1 0 1 1 1 1 2 2 2 2 2 2 3 3 3 3 3 3 4 4 4 4 4 4 3 3 3 3 2 2 2 2 2 2 2
Wind_Speed
3 2 2 2 2 3 2 2 3 3 3 3 3 4 5 4 5 6 7 12 13 14 15 15 16 16 17 17 18 18 18 18 17 16 15 14 12 11 10 9 8 7 5
3 3 3 2 2 3 3 3 3 4 4 3 4 4 5 4 5 6 7 10 12 14 16 16 16 16 17 18 18 18 18 18 18 17 16 15 14 12 11 10 9 8 6
4 3 3 3 3 3 3 3 3 3 4 4 4 5 4 5 5 7 7 8 10 13 15 16 16 16 16 17 17 19 20 19 18 18 17 16 15 14 13 11 10 9 8
5 4 4 4 4 3 2 3 3 3 4 4 4 4 4 5 6 7 7 8 8 9 12 15 16 17 17 17 17 18 20 20 19 18 18 17 16 15 14 13 12 10 9
7 5 4 5 4 3 3 4 3 3 4 4 4 4 4 5 6 7 7 7 8 8 9 12 15 16 16 17 17 18 18 19 20 19 18 18 18 17 15 14 13 12 10
7 5 5 5 4 3 3 3 4 3 4 4 5 5 5 5 5 6 7 6 7 8 8 9 10 12 14 15 17 17 17 18 19 20 19 18 19 18 17 16 15 13 12
7 5 6 5 4 5 5 5 4 4 3 2 2 4 5 5 6 5 5 5 6 7 7 8 8 9 10 14 16 17 18 18 19 19 20 19 19 18 17 17 16 15 13
6 6 6 6 5 5 6 5 4 3 4 2 2 2 3 3 4 5 5 6 6 6 6 8 8 8 8 9 12 16 18 18 19 19 19 20 19 18 18 17 17 16 15
6 6 6 6 6 6 6 6 6 5 5 4 4 3 2 3 3 4 5 6 6 5 6 6 8 8 9 8 10 13 16 18 19 19 19 19 19 19 18 18 17 17 16
7 7 7 7 7 6 6 7 6 6 6 6 4 5 5 4 3 3 3 5 7 7 7 6 7 8 9 9 10 13 15 17 18 19 19 18 18 19 19 18 18 17 16
7 7 8 7 8 7 7 8 7 7 7 7 6 4 5 6 6 5 6 5 5 6 7 7 7 7 9 10 10 12 13 15 17 18 19 18 18 18 19 18 17 16 15
6 7 8 7 8 8 9 9 9 9 9 8 8 7 6 5 6 6 7 7 6 6 6 7 7 7 8 10 11 13 14 14 15 16 17 17 17 17 17 18 16 15 15
6 7 8 8 8 8 9 9 9 10 10 10 10 8 8 8 6 6 6 6 6 5 4 5 7 7 8 9 10 13 13 14 14 15 15 15 15 15 15 14 15 14 14
7 8 8 9 9 9 10 9 9 11 10 11 12 11 9 8 8 7 7 6 6 6 5 5 4 7 8 8 10 12 12 14 14 14 14 14 14 14 13 13 12 12 10
7 8 9 9 9 10 10 10 9 10 10 11 11 11 10 9 8 8 7 7 7 8 9 5 4 6 6 7 10 10 10 12 13 13 13 13 13 13 12 12 11 11 9
8 8 9 10 10 10 10 10 9 10 11 11 10 11 11 9 8 8 8 8 7 8 9 6 5 5 6 6 10 10 9 12 13 13 12 13 12 12 12 12 11 10 9
8 9 10 10 10 10 10 10 10 10 11 11 11 12 12 10 9 8 8 8 8 7 9 8 5 5 6 7 6 7 8 8 10 12 12 13 12 11 12 12 11 10 10
9 10 10 10 10 10 9 10 11 11 11 12 12 12 12 10 11 9 9 9 8 7 7 9 6 5 6 7 6 6 5 6 8 10 11 12 12 11 12 12 11 11 10
9 10 9 10 10 10 9 10 10 11 11 11 12 12 12 11 11 9 9 9 8 7 7 8 8 5 5 5 5 5 4 4 5 8 10 11 11 11 12 12 11 11 10
9 9 9 9 9 10 10 9 9 10 10 10 11 11 12 12 13 11 10 9 8 7 7 7 7 6 5 4 5 5 4 3 3 3 5 6 8 9 11 11 11 11 10
9 8 9 8 8 8 8 9 8 9 10 10 10 11 11 13 15 13 10 9 8 7 7 7 7 5 5 5 6 4 4 3 2 2 3 3 4 4 5 8 10 10 10
8 8 8 8 8 8 12 14 11 8 8 9 9 9 10 12 14 15 16 15 13 11 10 8 7 8 7 6 4 5 5 3 2 2 3 2 3 3 3 4 8 10 10
8 8 8 7 7 9 14 14 13 9 7 7 7 7 8 9 11 9 11 12 12 14 14 10 10 10 8 7 6 6 6 4 2 3 3 1 2 2 2 4 8 9 9
7 7 7 7 7 9 13 13 13 9 7 7 7 7 8 8 9 9 7 7 8 8 9 8 8 8 7 7 7 6 5 3 2 1 2 2 1 1 1 2 7 9 9
7 7 7 7 7 9 12 12 11 5 5 6 7 7 8 8 10 10 7 7 6 5 4 6 6 6 6 7 8 6 6 6 2 1 1 2 1 1 1 1 3 7 7
7 7 7 6 6 7 10 12 11 5 5 5 5 5 8 9 9 9 8 7 7 6 4 3 4 3 4 6 8 7 7 7 3 2 2 2 3 2 1 1 1 3 4
Wind_Direction
306 304 313 326 330 333 313 292 294 281 270 267 259 246 232 228 221 222 224 221 221 223 225 223 217 214 212 210 207 202 199 195 194 193 192 190 188 188 187 187 189 189 188
304 286 284 285 295 306 305 285 277 275 257 255 257 252 243 235 227 225 225 223 223 225 227 225 222 218 215 213 211 207 202 200 198 197 195 194 194 194 193 193 196 197 198
295 284 270 267 272 291 297 295 284 286 270 260 258 258 249 240 237 229 224 221 222 224 227 229 226 222 220 217 214 212 207 203 202 200 198 198 198 198 198 199 201 203 206
280 280 273 263 269 279 274 269 270 279 279 263 262 262 258 247 239 232 223 221 221 224 226 229 230 227 224 221 217 216 212 207 204 204 202 201 201 201 202 203 205 207 210
271 262 269 266 261 253 251 266 268 250 270 277 268 261 256 257 247 236 227 221 221 222 220 225 229 229 227 225 222 220 218 212 208 206 206 205 204 204 205 207 208 211 214
268 259 261 265 253 245 251 251 257 255 252 267 277 272 263 258 253 239 228 222 221 221 218 221 221 226 227 231 228 224 223 217 212 210 209 209 208 207 208 210 211 214 215
265 254 262 260 254 244 242 245 251 254 254 254 280 287 282 258 252 246 234 224 221 219 214 215 218 222 223 227 230 228 228 225 218 215 211 210 211 212 211 214 214 215 216
264 265 258 254 250 247 245 239 233 251 256 227 215 257 293 287 254 248 237 229 227 218 216 218 217 219 222 221 226 229 230 230 226 220 216 214 212 214 215 215 216 216 217
257 258 260 261 254 240 242 238 225 238 245 237 203 212 235 252 281 245 232 231 225 228 226 217 219 222 221 221 224 226 229 231 231 227 221 218 217 216 217 217 216 217 219
253 251 251 256 253 241 242 242 237 228 227 240 229 228 234 244 249 273 254 235 228 228 226 234 226 222 222 221 226 229 229 230 231 232 225 223 223 222 220 220 218 217 217
254 252 248 249 250 243 241 242 239 232 225 230 231 233 241 242 235 242 259 250 244 229 222 223 221 221 221 221 223 225 229 232 233 234 228 226 226 227 224 220 220 215 216
259 252 254 251 251 242 238 239 236 232 230 232 232 226 228 229 225 232 243 243 251 252 231 223 222 222 220 218 225 224 226 233 234 233 230 227 229 231 229 223 219 217 216
271 264 260 256 255 247 242 240 238 236 230 230 234 232 232 235 230 235 240 248 263 278 254 234 223 219 221 214 218 218 222 230 234 233 229 225 226 230 228 226 220 220 219
265 263 262 261 258 254 249 242 241 240 234 230 237 234 235 238 230 230 231 236 257 278 266 244 230 219 215 211 215 215 219 227 231 229 228 223 222 222 221 223 217 217 220
266 263 262 265 263 258 252 245 245 244 239 233 235 235 236 240 233 231 228 221 230 257 268 252 237 222 214 208 213 210 213 224 227 226 224 219 217 215 215 215 209 209 211
268 268 266 266 262 258 255 248 247 246 242 238 235 235 237 240 235 230 226 227 228 237 258 258 253 235 221 231 223 211 213 225 223 221 221 214 211 207 207 205 200 202 203
268 268 266 267 264 260 255 250 247 248 244 244 241 237 237 234 234 233 228 228 230 229 248 268 259 232 224 221 221 207 207 213 211 213 216 210 205 203 201 198 197 198 199
271 270 268 266 263 260 255 250 251 250 245 245 242 237 239 237 232 231 229 228 229 226 233 253 258 238 236 215 211 209 217 220 207 209 212 207 202 200 197 194 194 194 195
276 274 272 267 264 262 259 253 250 251 250 247 243 236 237 234 235 233 231 231 229 231 226 234 247 244 243 218 204 219 221 221 207 205 203 197 194 195 192 190 191 188 188
279 276 275 269 267 264 263 258 253 252 255 251 245 238 236 234 234 231 234 230 226 226 226 227 234 236 236 213 198 204 219 216 213 200 191 182 182 187 186 186 186 184 184
283 280 281 278 274 270 266 262 258 257 258 256 249 241 237 238 239 235 236 226 218 220 223 224 226 237 234 207 209 201 209 201 210 190 164 166 161 167 172 180 182 180 180
286 284 281 279 278 278 281 279 273 263 259 255 253 246 238 238 243 242 241 237 228 222 219 219 226 223 231 215 210 194 187 188 224 169 150 167 153 170 173 177 176 174 175
288 287 282 277 277 279 284 285 282 277 265 257 253 248 246 242 244 229 234 238 237 237 233 223 220 221 222 208 191 195 192 193 215 173 141 201 154 164 173 178 171 169 168
292 288 284 280 279 282 289 290 286 280 268 261 254 249 244 241 236 225 220 228 232 234 232 227 220 224 219 202 194 197 183 144 97 104 144 174 171 158 146 166 163 161 163
301 294 293 290 284 287 291 291 289 280 274 266 259 254 243 238 238 233 225 226 229 238 233 208 198 200 200 194 180 165 164 157 172 204 122 139 149 108 92 136 151 151 155
300 303 301 296 287 286 288 293 293 280 277 273 265 256 249 243 241 244 227 215 217 221 199 169 162 173 190 182 182 186 179 172 171 186 177 143 151 132 115 65 108 128 137
Height
1478 1478 1478 1477 1477 1477 1477 1477 1478 1479 1479 1480 1480 1481 1481 1482 1483 1484 1486 1487 1488 1490 1491 1492 1493 1494 1496 1497 1498 1500 1501 1502 1503 1504 1505 1506 1507 1508 1508 1508 1508 1508 1508
1475 1474 1474 1474 1473 1473 1473 1473 1474 1474 1475 1475 1475 1476 1477 1478 1478 1480 1481 1482 1484 1485 1486 1487 1489 1490 1491 1493 1494 1496 1497 1498 1499 1501 1502 1503 1504 1505 1505 1505 1506 1506 1506
1472 1471 1470 1469 1469 1469 1470 1470 1470 1470 1470 1471 1471 1472 1472 1473 1474 1474 1476 1477 1478 1480 1481 1483 1484 1485 1487 1488 1490 1492 1493 1494 1496 1497 1498 1500 1501 1502 1502 1502 1503 1503 1503
1468 1467 1466 1465 1465 1465 1465 1465 1465 1465 1466 1466 1466 1467 1468 1468 1469 1469 1470 1472 1473 1475 1476 1478 1479 1480 1482 1484 1485 1487 1489 1490 1491 1493 1494 1496 1497 1498 1499 1499 1500 1500 1500
1463 1463 1462 1461 1461 1461 1461 1461 1461 1461 1461 1461 1462 1462 1462 1463 1464 1464 1465 1466 1468 1469 1471 1473 1474 1476 1477 1479 1480 1482 1483 1485 1487 1488 1490 1491 1493 1494 1495 1496 1496 1497 1497
1459 1458 1457 1457 1457 1456 1456 1456 1456 1457 1457 1457 1457 1457 1458 1458 1459 1459 1460 1461 1462 1464 1465 1467 1469 1470 1472 1473 1475 1477 1478 1480 1481 1483 1485 1486 1488 1489 1491 1492 1492 1493 1493
1454 1453 1453 1452 1452 1451 1451 1451 1451 1452 1452 1453 1453 1452 1452 1452 1453 1454 1455 1455 1457 1458 1460 1461 1463 1465 1466 1468 1470 1471 1473 1474 1476 1478 1479 1481 1483 1485 1486 1487 1488 1489 1489
1449 1448 1448 1447 1446 1446 1445 1446 1446 1446 1447 1448 1449 1449 1447 1446 1446 1448 1449 1450 1451 1453 1454 1456 1457 1459 1461 1462 1464 1466 1468 1469 1471 1472 1474 1475 1477 1479 1481 1482 1483 1484 1484
1444 1443 1442 1441 1441 1441 1440 1440 1441 1442 1441 1443 1445 1446 1445 1442 1442 1442 1443 1445 1446 1447 1448 1450 1451 1453 1455 1457 1458 1460 1462 1464 1465 1467 1468 1470 1472 1474 1475 1476 1478 1479 1480
1438 1437 1436 1436 1435 1434 1434 1434 1435 1436 1437 1437 1439 1440 1441 1440 1440 1437 1437 1439 1440 1441 1442 1444 1445 1447 1449 1451 1452 1454 1456 1458 1460 1461 1462 1464 1466 1468 1469 1470 1472 1473 1474
1432 1431 1430 1430 1429 1428 1428 1429 1429 1430 1431 1431 1432 1433 1434 1434 1435 1434 1431 1433 1434 1434 1436 1437 1439 1441 1442 1444 1446 1448 1449 1451 1453 1455 1457 1458 1461 1462 1463 1464 1466 1468 1469
1426 1425 1424 1423 1423 1422 1422 1422 1422 1423 1424 1425 1426 1427 1427 1427 1428 1429 1427 1426 1427 1428 1429 1431 1433 1434 1436 1438 1440 1442 1443 1445 1447 1449 1451 1452 1455 1457 1458 1459 1460 1462 1463
1419 1418 1418 1417 1416 1416 1416 1415 1415 1415 1416 1417 1418 1419 1420 1421 1422 1423 1423 1422 1422 1422 1422 1423 1426 1428 1430 1432 1433 1435 1437 1439 1441 1443 1445 1447 1449 1451 1453 1454 1455 1456 1458
1413 1412 1411 1410 1410 1409 1408 1408 1408 1408 1409 1409 1410 1412 1413 1414 1415 1416 1417 1417 1417 1416 1415 1416 1419 1422 1423 1425 1427 1429 1431 1433 1435 1437 1438 1441 1443 1445 1447 1449 1450 1452 1453
1407 1406 1405 1403 1402 1401 1401 1400 1400 1400 1401 1401 1402 1404 1405 1406 1408 1409 1411 1412 1413 1411 1409 1409 1412 1414 1417 1419 1421 1423 1424 1427 1428 1430 1432 1434 1436 1439 1441 1443 1444 1446 1448
1401 1399 1398 1396 1395 1394 1393 1392 1392 1392 1392 1393 1394 1395 1397 1398 1400 1401 1403 1405 1406 1406 1404 1403 1405 1407 1410 1412 1415 1416 1418 1420 1422 1424 1426 1428 1430 1433 1435 1437 1438 1441 1443
1395 1392 1391 1389 1387 1386 1385 1384 1383 1384 1384 1384 1386 1387 1388 1390 1392 1394 1395 1397 1399 1400 1399 1397 1399 1402 1404 1406 1408 1410 1412 1413 1415 1417 1420 1422 1424 1427 1429 1431 1433 1435 1437
1388 1386 1384 1382 1380 1379 1378 1377 1376 1376 1376 1376 1377 1378 1380 1382 1384 1386 1388 1389 1391 1392 1394 1392 1393 1395 1397 1399 1401 1403 1405 1407 1409 1411 1414 1416 1418 1421 1424 1426 1428 1430 1432
1381 1379 1377 1375 1374 1372 1371 1370 1369 1369 1369 1369 1369 1370 1372 1374 1376 1378 1380 1381 1383 1385 1388 1388 1387 1390 1391 1393 1395 1397 1399 1401 1403 1405 1408 1410 1413 1415 1418 1421 1423 1424 1426
1375 1373 1371 1369 1367 1366 1364 1363 1362 1362 1361 1361 1362 1363 1364 1367 1368 1370 1372 1374 1376 1379 1381 1382 1382 1383 1385 1387 1389 1390 1392 1395 1397 1399 1402 1405 1407 1410 1413 1415 1418 1419 1421
1369 1367 1365 1363 1361 1359 1358 1356 1355 1355 1354 1354 1354 1355 1357 1359 1361 1363 1365 1367 1369 1372 1374 1375 1376 1377 1379 1381 1383 1384 1387 1389 1391 1394 1397 1399 1403 1405 1407 1410 1413 1415 1417
1364 1362 1360 1357 1355 1353 1352 1350 1349 1348 1348 1347 1347 1348 1350 1352 1354 1356 1358 1361 1363 1365 1366 1368 1369 1371 1372 1375 1378 1379 1382 1384 1386 1390 1392 1395 1398 1400 1403 1406 1408 1410 1412
1359 1356 1354 1352 1350 1347 1346 1344 1344 1343 1342 1342 1341 1342 1344 1345 1348 1349 1351 1353 1356 1358 1361 1362 1363 1365 1367 1369 1372 1375 1377 1380 1382 1385 1388 1390 1393 1396 1399 1402 1404 1406 1408
1354 1351 1349 1347 1344 1342 1341 1339 1339 1338 1337 1336 1337 1337 1338 1339 1341 1342 1344 1346 1348 1351 1354 1356 1358 1359 1362 1365 1368 1371 1373 1375 1378 1382 1386 1387 1389 1392 1395 1398 1401 1403 1405
1350 1347 1344 1342 1339 1337 1336 1335 1334 1333 1332 1331 1331 1332 1333 1334 1335 1337 1339 1340 1342 1344 1348 1350 1352 1354 1357 1360 1363 1367 1369 1372 1374 1377 1381 1384 1386 1389 1392 1395 1397 1400 1401
1346 1343 1340 1337 1335 1333 1331 1330 1329 1328 1327 1326 1326 1326 1327 1328 1329 1331 1333 1334 1336 1338 1342 1344 1347 1349 1352 1355 1359 1363 1365 1368 1371 1374 1377 1381 1383 1386 1389 1392 1395 1397 1399